Location: Four Corners
(38.2757°N, 122.4608°W)
Time: 09:56:36
(UTC+00:00)

Cosmos 1812 - Pass Details

Date: 08 December 2019
Orbit: 516 x 523 km, 82.5° (Epoch: 17 January)

Event Time Altitude Azimuth Distance (km) Brightness Sun altitude
Rises 02:08:11 0° 202° (SSW) 2,636 6.9 -15.1°
Reaches altitude 10° 02:10:24 10° 211° (SSW) 1,754 6.1 -15.5°
Maximum altitude 02:14:02 39° 281° (W) 794 4.1 -16.2°
Drops below altitude 10° 02:17:41 10° 351° (N) 1,768 5.3 -16.9°
Sets 02:19:57 0° 359° (N) 2,661 6.2 -17.3°
